Погода в Сусумане

Погода в Сусумане : погода сейчас, прогноз погоды и архив. Всё, что Вы хотите узнать о погоде в Сусумане!

Поиск расширенной информации на нашем сайте:

Другие новости

Новости СМИ2

Главная страница сайта

Новости сайта

03.07.2017

Напоминаем, что на нашем специализированном сайте Метеоцентр.Азия вы можете получить высокодетализированные автоматические прогнозы погоды по пунктам России, СНГ и мира в авиационном формате (включающие направление и скорость ветра, видимость, явления погоды, количество и форму облачности, нижнюю и верхнюю границу облачности).

Рекомендуем: Top100 бизнес и финансы базы данных предприятий россии.

Погода в Сусумане - сегодня

Время (UTC), дата Ветер
(°,м/с) 
Видим.   Явления Облачность Т
(°С)
Тd
(°С)
f(%) Тe
(°С)
Pmin
(гПа)
dP
(гПа)
Po
(мм)
O2
(г/м3)
Тmin Tmax R s Состояние
почвы
03 20.10.17 300 (СЗ) 20000 м    9/9 800 м 
[Sc]
-10.3 -15.8 64 -10  1032.9  712  299           
06 20.10.17 020 (С) 20000 м    9/9 840 м 
[Sc]
-11.6 -15.8 71 -14  1034.1  0.6  712  301           
09 20.10.17 030 (СВ) 20000 м    10/10 800 м 
[Sc]
-12.8 -16.2 76 -15  1035.5  0.9  713  303    -9.9       
12 20.10.17 020 (С) 20000 м    10/10 800 м 
[Sc]
-14 -16.4 82 -14  1036.6  0.7  714  304           
15 20.10.17 040 (СВ) 20000 м    10/10 800 м 
[Sc]
-15.2 -17.6 82 -15  1037.9  0.7  714  306           
18 20.10.17 080 (В) 20000 м    10/10 900 м 
[Sc]
-15.6 -18.2 80 -16  1038.7  0.6  715  307           
21 20.10.17 110 (В) 20000 м    10/10 930 м 
[Sc]
-15.4 -17.9 81 -15  1039  0.4  715  307  -15.7      равномерный
сухой снег
100% 
00 21.10.17 260 (З) 20000 м  осадки на расстоянии  8/8 960 м кучево-дожд. 
[Cb cap]
-15 -18.1 77 -15  1039.5  0.5  715  306           
03 21.10.17 280 (З) 20000 м    3/3 600 м кучево-дожд., верхняя 
[Cb cap|Ci fib]
-13.6 -18 69 -16  1038.9  0.1  715  305           
06 21.10.17 020 (С) 20000 м    3/0 верхняя 
[Ci fib]
-13.7 -18.3 68 -16  1038.9  715  305           
09 21.10.17 тихо ()   20000 м    ясно 
-21.1 -23.3 82 -21  1042  0.4  716  314    -12       
12 21.10.17 130 (ЮВ) 20000 м    ясно 
-24 -26.5 80 -24  1043.3  0.2  716  318           
15 21.10.17 100 (В) 20000 м    ясно 
-25 -27.7 78 -26  1043.4  -0.2  716  319           
18 21.10.17 100 (В) 20000 м    ясно 
-25.2 -27.8 79 -26  1042.8  -0.7  715  319           
21 21.10.17 030 (СВ) 20000 м    4/0 средняя 
[Ac trans]
-23.9 -26.5 79 -24  1041.4  -0.7  714  317  -25.5      равномерный
сухой снег
100% 
00 22.10.17 050 (СВ) 20000 м    3/1 1000 м верхняя 
[Sc|Ci fib]
-19.7 -22.9 76 -20  1038.5  -1.2  714  311           
03 22.10.17 тихо ()   20000 м    3/0 верхняя 
[Ci fib]
-13.5 -19.1 63 -14  1033.7  -2.4  712  303           
06 22.10.17 тихо ()   20000 м    9/0 верхняя 
[Ci sp]
-13.8 -18.6 67 -14  1031.5  -2.4  710  303           
09 22.10.17 тихо ()   20000 м    8/0 верхняя 
[Ci fib]
-16.3 -18.7 82 -16  1029.5  -2.5  708  305    -12.5       
12 22.10.17 тихо ()   20000 м    8/0 верхняя 
[Ci fib]
-16.9 -18.7 86 -17  1027.7  -1.8  707  305           
15 22.10.17 тихо ()   20000 м    8/0 средняя, верхняя 
[Ac trans|Ci fib]
-16.3 -18.2 85 -16  1024.2  -3.1  705  303           
18 22.10.17 190 (Ю) 20000 м    8/0 средняя, верхняя 
[Ac trans|Ci fib]
-16.7 -18.4 87 -17  1021.3  -2.7  702  303           
21 22.10.17 040 (СВ) 20000 м    9/3 1000 м средняя, верхняя 
[Sc|Ac trans|Cs]
-18.6 -20.4 86 -19  1018.9  -2.8  700  304  -18.6      равномерный
сухой снег
100% 
00 23.10.17 300 (СЗ) 20000 м    9/3 1000 м средняя, верхняя 
[Sc|Ac As|Ci fib]
-14.8 -16.9 84 -15  1015.3  -2.1  699  299  -19.2         
03 23.10.17 350 (С) 20000 м    9/3 1000 м средняя, верхняя 
[Sc|Ac trans|Ci fib]
-9.2 -14.5 65 -9  1010.3  -2.9  697  292           
Время (UTC), дата Ветер
(°,м/с) 
Видим.   Явления Облачность Т
(°С)
Тd
(°С)
f(%) Тe
(°С)
Pmin
(гПа)
dP
(гПа)
Po
(мм)
O2
(г/м3)
Тmin Tmax R s Состояние
почвы

Для получения пояснительной информации подведите курсор к названию столбца.

ПОГОДА в Сусумане - архив

Всё, что Вы хотите узнать о погоде в Сусумане - удобно и подробно!

Выберите нужную дату (начиная с 1 января 2015* года) и нажмите кнопку "Найти".
Будут отображены архивные сводки погоды по пункту Сусуман, начиная с указанной даты.


Отображать данные в формате CSV (для использования в таблицах Excel)


Внимание! Наш архив погоды предназначен исключительно для личного некоммерческого использования в познавательных целях. Если Вам необходимы официальные справки о состоянии погоды (для производственных, юридических, коммерческих и т.п. целей), обращайтесь в органы Росгидромета.

*Примечание: данная дата относится к архиву по метеостанциям СССР (Россия, СНГ, Балтия).
Архив по метеостанциям Зарубежной Европы и Азии (кроме Китая) хранится 10 дней, по другим регионам земного шара (Китай, Африка, Америка, Австралия, Океания) - 1 день.

Сусуман - район местоположения метеостанции


Название, широта, долгота, высота метеостанции:
Сусуман 62.8°ш. 148.2°д. 655 м над ур. моря [Российская Федерация]

Дополнительная информация

В oтличие oт бoльшинства пoгoдных сайтoв мы публикуем пoдрoбную метеoинфoрмацию в детальнoм прoфессиoнальнoм фoрмате.

Характеристики температуры и влажнoсти вoздуха измеряются на высoте 2 м в тени вдали oт зданий и деревьев.
Скoрoсть ветра измеряется на высoте 10 м (на урoвне рoста челoвека скoрoсть ветра ниже в 1.5-2 раза). Если метеoстанция нахoдится в гoрoде или в лесу, тo скoрoсть ветра занижена на 2-4 м/с пo сравнению с oткрытым местoм. Скoрoсть ветра над акватoриями крупных рек и oзёр, а также на вершинах хoлмoв на 2-5 м/с выше, чем в oбычных услoвиях.
Атмoсфернoе давление в разных тoчках местнoсти мoжет значительнo oтличаться oт давления на метеoстанции, в зависимoсти oт услoвий рельефа (при пoдъёме на 10 м давление пoнижается примернo на 1 мм рт.ст.).